Location: *
(46.1006°N, 1.8394°E)
Time: 16:47:18
(UTC+00:00)

SL-8 R/B - Pass Details

Date: 20 September 2019
Orbit: 657 x 667 km, 48.4° (Epoch: 14 October)

Event Time Altitude Azimuth Distance (km) Brightness Sun altitude
Rises 20:01:17 0° 278° (W) 2,986 8.3 -21.9°
Reaches altitude 10° 20:03:39 10° 281° (W) 2,076 7.3 -22.3°
Maximum altitude 20:08:25 66° 4° (N) 722 3.9 -23.0°
Enters shadow 20:09:15 55° 55° (NE) 798 3.9 -23.2°
